Location: ???????????
(54.6970°N, 39.1477°E)
Time: 15:09:32
(UTC+00:00)

Cosmos 2123 Rocket - Pass Details

Date: 19 May 2025
Orbit: 960 x 992 km, 82.9° (Epoch: 20 June)

Event Time Altitude Azimuth Distance (km) Brightness Sun altitude
Exits shadow 21:46:03 19° 164° (SSE) 2,159 5.3 -15.1°
Maximum altitude 21:50:32 56° 93° (E) 1,167 4.4 -15.0°
Drops below altitude 10° 21:56:42 10° 17° (NNE) 2,764 7.7 -14.9°
Sets 21:59:16 0° 13° (NNE) 3,714 9.0 -14.9°
